Grand Junction, CO

9:48 PM MDT on October 23, 2019 (GMT -0600)
Walker

Weather History for KGJT - March, 2019

Change the Weather History Date:

Sunday, March 31, 2019

  Actual Average Record
Temperature  
Mean Temperature 45 °F -  
Max Temperature 57 °F - 80 °F (2012)
Min Temperature 32 °F - 16 °F (1980)
Degree Days  
Heating Degree Days 20    
Month to date heating degree days 653  
Moisture  
Dew Point 24 °F    
Average Humidity 49    
Maximum Humidity 70    
Minimum Humidity 27    
Precipitation  
Precipitation 0.00 in - 0.62 in (1894)
Month to date precipitation 2.29  
Year to date precipitation 3.73  
Snow  
Snow 0.00 in - - ()
Month to date snowfall 0.0  
Snow Depth 0.00 in    
Sea Level Pressure  
Sea Level Pressure 30.12 in    
Wind  
Wind Speed 4 mph (NNW)    
Max Wind Speed 15 mph    
Max Gust Speed 19 mph    
Visibility 10 miles    
Events      
T = Trace of Precipitation, MM = Missing Value Source: NWS Daily Summary

Daily Weather History Graph

Daily Weather History Graph

Search for Another Location

Airport or City:

Astronomy

Mar. 31, 2019 Rise Set
Actual Time 7:00 AM MDT 7:36 PM MDT
Civil Twilight 6:33 AM MDT 8:03 PM MDT
Nautical Twilight 6:01 AM MDT 8:35 PM MDT
Astronomical Twilight 5:29 AM MDT 9:08 PM MDT
Moon 4:57 AM MDT (3/31) 3:20 PM MDT (3/31)
Length of Visible Light 13h 30m
Length of Day
12h 36m
Waning Crescent, 19% of the Moon is Illuminated
Mar 31
Waning Crescent
Apr 5
New
Apr 12
First Quarter
Apr 19
Full
Apr 26
Last Quarter

Hourly Weather History & Observations

Time (MDT) Temp. Windchill Dew Point Humidity Pressure Visibility Wind Dir Wind Speed Gust Speed Precip Events Conditions
12:53 AM 37.9 °F 35.5 °F 21.9 °F 53% 30.18 in 10.0 mi West 3.5 mph - N/A   Clear
1:53 AM 33.1 °F 30.0 °F 23.0 °F 66% 30.19 in 10.0 mi East 3.5 mph - N/A   Clear
3:53 AM 36.0 °F - 21.9 °F 57% 30.15 in 10.0 mi Calm Calm - N/A   Partly Cloudy
4:53 AM 36.0 °F 31.1 °F 25.0 °F 64% 30.14 in 10.0 mi NE 5.8 mph - N/A   Overcast
5:53 AM 37.9 °F 34.4 °F 24.1 °F 57% 30.15 in 10.0 mi NE 4.6 mph - N/A   Overcast
6:53 AM 37.0 °F - 24.1 °F 59% 30.17 in 10.0 mi Calm Calm - N/A   Overcast
7:53 AM 36.0 °F - 27.0 °F 70% 30.20 in 10.0 mi Calm Calm - N/A   Overcast
8:53 AM 39.9 °F - 24.1 °F 53% 30.21 in 10.0 mi Calm Calm - N/A   Overcast
9:53 AM 42.1 °F - 23.0 °F 47% 30.19 in 10.0 mi Calm Calm - N/A   Overcast
10:53 AM 44.1 °F 42.5 °F 23.0 °F 43% 30.18 in 10.0 mi Variable 3.5 mph - N/A   Clear
11:53 AM 48.0 °F - 24.1 °F 39% 30.16 in 10.0 mi SSE 3.5 mph - N/A   Clear
12:53 PM 46.9 °F - 23.0 °F 39% 30.14 in 10.0 mi Calm Calm - N/A   Clear
1:53 PM 51.1 °F - 24.1 °F 35% 30.12 in 10.0 mi WNW 4.6 mph - N/A   Clear
2:53 PM 53.1 °F - 26.1 °F 35% 30.08 in 10.0 mi SSW 4.6 mph - N/A   Clear
3:53 PM 55.0 °F - 26.1 °F 33% 30.04 in 10.0 mi Variable 6.9 mph - N/A   Clear
4:53 PM 55.0 °F - 24.1 °F 30% 30.02 in 10.0 mi Calm Calm - N/A   Clear
5:53 PM 55.0 °F - 23.0 °F 29% 30.01 in 10.0 mi West 8.1 mph - N/A   Clear
6:53 PM 54.0 °F - 21.9 °F 29% 30.02 in 10.0 mi WNW 11.5 mph - N/A   Partly Cloudy
7:53 PM 48.9 °F - 24.1 °F 38% 30.05 in 10.0 mi WNW 10.4 mph - N/A   Clear
8:53 PM 46.9 °F - 21.0 °F 36% 30.08 in 10.0 mi NNE 9.2 mph - N/A   Clear
9:53 PM 44.1 °F 40.8 °F 23.0 °F 43% 30.11 in 10.0 mi West 5.8 mph - N/A   Clear
10:53 PM 39.9 °F 37.8 °F 24.1 °F 53% 30.12 in 10.0 mi NE 3.5 mph - N/A   Clear
11:53 PM 36.0 °F 33.3 °F 25.0 °F 64% 30.12 in 10.0 mi NE 3.5 mph - N/A   Clear